Location: Hopewell Observatory
(38.8698°N, 77.6988°W)
Time: 04:44:31
(UTC-04:00)

Amateur Radio Satellites - All Passes

Search period start: 25 October 2014 04:14
Search period end: 26 October 2014 04:14
Location: Hopewell Observatory, 38.8698°N, 77.6988°W

Satellite Date Start Highest point End Downlink Frequencies (MHz)
Time Altitude Azimuth
RS-15 25 Oct 04:26:39 04:33:46 18° 15° (NNE) 04:40:59 29.354 - 29.394 USB, Beacon 29.352 USB
Gurwin Techsat 1B 25 Oct 04:27:56 04:33:08 55° 288° (WNW) 04:38:17 435.225 FM
OPAL 25 Oct 04:29:19 04:33:20 24° 64° (ENE) 04:37:19 ?
Oscar 19 25 Oct 04:38:39 04:39:05 10° 301° (WNW) 04:39:31 437.125 CW, 437.150 USB
TMSAT-1 25 Oct 04:39:02 04:44:15 59° 287° (WNW) 04:49:26 436.925 FM
AO-27 25 Oct 04:54:13 04:57:36 18° 297° (WNW) 05:00:59 436.795 MHz FM
JAS-2 25 Oct 05:12:42 05:17:42 18° 88° (E) 05:22:40 435.800 - 435.900 CW/SSB, 435.910 FM
AO-7 25 Oct 05:19:04 05:27:18 61° 104° (ESE) 05:35:30 29.400 - 29.500 MHz
Uosat F 25 Oct 05:20:24 05:25:19 49° 100° (E) 05:30:11 435.120 FM
Sapphire 25 Oct 05:25:56 05:30:40 30° 308° (NW) 05:35:26 437.095 MHz 1200 baud AX-25 AFSK
PCSat 25 Oct 05:49:39 05:53:31 20° 313° (NW) 05:57:25 145.825 MHz
OPAL 25 Oct 06:07:05 06:11:56 41° 259° (W) 06:16:46 ?
STRAND 1 25 Oct 06:14:00 06:18:02 24° 66° (ENE) 06:22:05 ?
Hamsat 25 Oct 06:23:04 06:26:45 29° 96° (E) 06:30:25 145.90 MHz
RS-15 25 Oct 06:39:31 06:50:05 46° 46° (NE) 07:01:02 29.354 - 29.394 USB, Beacon 29.352 USB
JAS-2 25 Oct 06:55:36 07:03:27 87° 285° (WNW) 07:11:15 435.800 - 435.900 CW/SSB, 435.910 FM
Uosat F 25 Oct 07:00:13 07:03:41 19° 296° (WNW) 07:07:09 435.120 FM
Saudisat 1A 25 Oct 07:12:29 07:16:13 28° 113° (ESE) 07:19:59 436.775 MHz
AO-7 25 Oct 07:12:38 07:19:33 31° 302° (WNW) 07:26:29 29.400 - 29.500 MHz
SO-67 25 Oct 07:26:12 07:28:25 16° 94° (E) 07:30:37 435.3500 MHz FM
PANSAT 25 Oct 07:47:11 07:48:57 13° 168° (SSE) 07:50:43 not established
STRAND 1 25 Oct 07:52:12 07:56:58 39° 262° (W) 08:01:47 ?
Hamsat 25 Oct 07:59:19 08:02:31 22° 291° (WNW) 08:05:44 145.90 MHz
JAS-2 25 Oct 08:42:25 08:47:24 19° 302° (WNW) 08:52:25 435.800 - 435.900 CW/SSB, 435.910 FM
Saudisat 1A 25 Oct 08:51:52 08:55:42 29° 310° (NW) 08:59:35 436.775 MHz
RS-15 25 Oct 08:51:55 09:02:43 56° 248° (WSW) 09:13:59 29.354 - 29.394 USB, Beacon 29.352 USB
SO-67 25 Oct 08:58:31 09:01:22 24° 288° (WNW) 09:04:12 435.3500 MHz FM
MaSat-1 25 Oct 09:03:57 09:05:38 16° 56° (ENE) 09:07:15 437.345 MHz
PANSAT 25 Oct 09:25:53 09:28:27 17° 180° (S) 09:31:00 not established
HO-68 25 Oct 09:30:01 09:36:33 36° 98° (E) 09:43:01 435.675 MHz FM
Oscar 11 25 Oct 10:15:17 10:18:56 26° 96° (E) 10:22:34 145.825 FM, Beacon 2401.500 USB
MaSat-1 25 Oct 10:40:22 10:41:00 11° 256° (WSW) 10:41:36 437.345 MHz
KITSAT 1 25 Oct 11:03:32 11:08:58 20° 102° (ESE) 11:14:23 435.175 FM
ZACube-1 25 Oct 11:05:38 11:09:38 40° 98° (E) 11:13:32 437.345 MHz
PANSAT 25 Oct 11:06:16 11:07:55 12° 193° (SSW) 11:09:34 not established
UKube-1 25 Oct 11:09:42 11:14:04 68° 285° (WNW) 11:18:23 145.840 MHz, 145.915 MHz
HO-68 25 Oct 11:17:36 11:24:14 42° 294° (WNW) 11:30:52 435.675 MHz FM
FUNcube-1 25 Oct 11:50:09 11:54:20 60° 285° (WNW) 11:58:25 145.950 - 145.970 MHz USB
Oscar 11 25 Oct 11:51:31 11:55:00 25° 291° (WNW) 11:58:29 145.825 FM, Beacon 2401.500 USB
ISS 25 Oct 12:21:30 12:24:33 34° 135° (SE) 12:27:37 145.800 FM
Sapphire 25 Oct 12:31:31 12:35:59 25° 50° (NE) 12:40:26 437.095 MHz 1200 baud AX-25 AFSK
Oscar 19 25 Oct 12:34:40 12:37:26 15° 62° (ENE) 12:40:12 437.125 CW, 437.150 USB
JAS-1B 25 Oct 12:41:14 12:44:44 17° 61° (ENE) 12:48:10 435.800 - 435.900 CW/SSB
Oscar 10/S400 25 Oct 12:41:44 13:01:13 31° 152° (SSE) 13:17:51 145.825 - 145.975 CW/USB, Beacon 145.810 USB
ZACube-1 25 Oct 12:43:03 12:45:41 16° 294° (WNW) 12:48:16 437.345 MHz
PCSat 25 Oct 12:53:37 12:58:44 40° 55° (NE) 13:03:47 145.825 MHz
SO-50 25 Oct 12:53:53 12:58:13 52° 117° (ESE) 13:02:41 436.795 FM
KITSAT 1 25 Oct 12:55:19 13:03:24 81° 300° (WNW) 13:11:32 435.175 FM
AO-Echo 25 Oct 13:10:40 13:13:34 16° 62° (ENE) 13:16:32 ?
Oscar 16 25 Oct 13:18:09 13:22:54 39° 70° (ENE) 13:27:39 437.025 USB, Beacon 2401.1428
Uribyol 2 25 Oct 13:39:22 13:43:40 27° 66° (ENE) 13:47:58 436.500 FM
ITAMSAT 1 25 Oct 13:45:27 13:49:50 28° 67° (ENE) 13:54:15 435.822 SSB
ISS 25 Oct 13:58:21 14:01:16 27° 331° (NNW) 14:04:11 145.800 FM
Gurwin Techsat 1B 25 Oct 14:09:08 14:13:22 25° 66° (ENE) 14:17:38 435.225 FM
Oscar 19 25 Oct 14:11:04 14:16:11 68° 258° (WSW) 14:21:19 437.125 CW, 437.150 USB
Sapphire 25 Oct 14:14:26 14:19:37 47° 248° (WSW) 14:24:46 437.095 MHz 1200 baud AX-25 AFSK
UOSAT-12 25 Oct 14:14:37 14:18:40 31° 113° (ESE) 14:22:49 437.025 FM, 437.400 FM
TMSAT-1 25 Oct 14:20:07 14:24:13 23° 65° (ENE) 14:28:20 436.925 FM
AO-7 25 Oct 14:28:51 14:33:16 16° 49° (NE) 14:37:40 29.400 - 29.500 MHz
JAS-1B 25 Oct 14:28:59 14:34:57 62° 258° (WSW) 14:40:34 435.800 - 435.900 CW/SSB
AO-27 25 Oct 14:30:16 14:35:27 77° 75° (ENE) 14:40:42 436.795 MHz FM
SO-50 25 Oct 14:35:48 14:39:05 19° 315° (NW) 14:42:27 436.795 FM
PCSat 25 Oct 14:37:25 14:41:55 27° 252° (WSW) 14:46:24 145.825 MHz
AO-Echo 25 Oct 14:46:59 14:51:47 59° 260° (W) 14:56:46 ?
KITSAT 1 25 Oct 14:54:17 15:00:07 21° 322° (NW) 15:05:59 435.175 FM
Oscar 16 25 Oct 14:58:14 15:02:20 24° 265° (W) 15:06:27 437.025 USB, Beacon 2401.1428
Uribyol 2 25 Oct 15:18:11 15:22:57 36° 262° (W) 15:27:45 436.500 FM
ITAMSAT 1 25 Oct 15:24:30 15:29:11 33° 263° (W) 15:33:54 435.822 SSB
ISS 25 Oct 15:38:13 15:38:51 10° 351° (N) 15:39:29 145.800 FM
Saudisat 1A 25 Oct 15:40:19 15:43:29 19° 46° (NE) 15:46:39 436.775 MHz
Gurwin Techsat 1B 25 Oct 15:48:09 15:53:06 39° 262° (W) 15:58:04 435.225 FM
UOSAT-12 25 Oct 15:54:42 15:58:47 30° 310° (NW) 16:02:56 437.025 FM, 437.400 FM
TMSAT-1 25 Oct 15:58:50 16:03:50 43° 261° (W) 16:08:53 436.925 FM
AO-27 25 Oct 16:13:45 16:15:30 12° 270° (W) 16:17:16 436.795 MHz FM
AO-7 25 Oct 16:16:24 16:24:37 72° 69° (ENE) 16:32:52 29.400 - 29.500 MHz
Uosat F 25 Oct 16:32:20 16:37:16 60° 73° (ENE) 16:42:14 435.120 FM
JAS-2 25 Oct 17:06:55 17:12:17 36° 65° (ENE) 17:18:17 435.800 - 435.900 CW/SSB, 435.910 FM
ISS 25 Oct 17:15:43 17:16:47 11° 12° (NNE) 17:17:52 145.800 FM
Hamsat 25 Oct 17:15:55 17:18:50 19° 68° (ENE) 17:21:46 145.90 MHz
Saudisat 1A 25 Oct 17:19:02 17:23:19 50° 243° (WSW) 17:27:35 436.775 MHz
AO-7 25 Oct 18:11:52 18:18:01 23° 266° (W) 18:24:14 29.400 - 29.500 MHz
Uosat F 25 Oct 18:13:47 18:16:26 14° 268° (W) 18:19:06 435.120 FM
OPAL 25 Oct 18:17:57 18:22:50 56° 103° (ESE) 18:27:40 ?
Hamsat 25 Oct 18:50:43 18:54:32 34° 263° (W) 18:58:22 145.90 MHz
ISS 25 Oct 18:51:13 18:54:17 33° 31° (NNE) 18:57:21 145.800 FM
JAS-2 25 Oct 18:51:59 18:57:18 35° 266° (W) 19:03:16 435.800 - 435.900 CW/SSB, 435.910 FM
KITSAT 1 25 Oct 18:56:41 18:59:45 12° 25° (NNE) 19:02:48 435.175 FM
SO-67 25 Oct 19:29:00 19:32:26 81° 78° (ENE) 19:35:53 435.3500 MHz FM
OPAL 25 Oct 19:58:08 20:01:14 17° 299° (WNW) 20:04:20 ?
HO-68 25 Oct 19:58:14 20:03:47 25° 60° (ENE) 20:09:20 435.675 MHz FM
STRAND 1 25 Oct 20:03:37 20:08:48 78° 103° (ESE) 20:13:56 ?
ISS 25 Oct 20:28:03 20:30:53 26° 227° (SW) 20:33:43 145.800 FM
KITSAT 1 25 Oct 20:50:11 20:57:45 41° 50° (NE) 21:05:15 435.175 FM
RS-15 25 Oct 21:04:01 21:12:39 28° 103° (ESE) 21:21:10 29.354 - 29.394 USB, Beacon 29.352 USB
Oscar 11 25 Oct 21:09:46 21:12:48 19° 67° (ENE) 21:15:51 145.825 FM, Beacon 2401.500 USB
SO-50 25 Oct 21:26:33 21:31:02 36° 52° (NE) 21:35:32 436.795 FM
HO-68 25 Oct 21:43:50 21:50:54 63° 257° (WSW) 21:58:03 435.675 MHz FM
STRAND 1 25 Oct 21:45:02 21:47:17 13° 299° (WNW) 21:49:31 ?
ZACube-1 25 Oct 22:00:42 22:04:42 30° 70° (ENE) 22:08:38 437.345 MHz
UKube-1 25 Oct 22:03:34 22:07:55 87° 76° (ENE) 22:12:19 145.840 MHz, 145.915 MHz
MaSat-1 25 Oct 22:41:04 22:41:55 11° 104° (ESE) 22:42:46 437.345 MHz
FUNcube-1 25 Oct 22:44:29 22:49:05 90° 75° (ENE) 22:53:38 145.950 - 145.970 MHz USB
Oscar 11 25 Oct 22:44:45 22:48:43 35° 262° (W) 22:52:42 145.825 FM, Beacon 2401.500 USB
UOSAT-12 25 Oct 22:45:23 22:49:06 22° 46° (NE) 22:52:46 437.025 FM, 437.400 FM
KITSAT 1 25 Oct 22:45:37 22:53:11 46° 250° (WSW) 23:00:43 435.175 FM
SO-50 25 Oct 23:07:22 23:11:27 27° 248° (WSW) 23:15:32 436.795 FM
RS-15 25 Oct 23:12:52 23:23:53 75° 303° (WNW) 23:34:51 29.354 - 29.394 USB, Beacon 29.352 USB
ZACube-1 25 Oct 23:37:19 23:41:03 24° 265° (W) 23:44:45 437.345 MHz
MaSat-1 26 Oct 00:13:06 00:17:11 57° 296° (WNW) 00:20:53 437.345 MHz
UOSAT-12 26 Oct 00:24:58 00:29:28 45° 244° (WSW) 00:33:52 437.025 FM, 437.400 FM
RS-15 26 Oct 01:29:57 01:38:28 25° 331° (NNW) 01:47:04 29.354 - 29.394 USB, Beacon 29.352 USB
Oscar 16 26 Oct 01:32:30 01:35:16 15° 91° (E) 01:38:02 437.025 USB, Beacon 2401.1428
ITAMSAT 1 26 Oct 02:02:51 02:03:09 10° 89° (E) 02:03:28 435.822 SSB
JAS-1B 26 Oct 02:12:09 02:18:35 39° 99° (E) 02:26:06 435.800 - 435.900 CW/SSB
Oscar 19 26 Oct 02:24:01 02:28:57 47° 99° (E) 02:33:52 437.125 CW, 437.150 USB
AO-27 26 Oct 02:45:04 02:49:39 30° 96° (E) 02:54:11 436.795 MHz FM
AO-Echo 26 Oct 02:55:13 03:00:25 51° 100° (E) 03:05:33 ?
Oscar 16 26 Oct 03:09:57 03:15:00 61° 287° (WNW) 03:20:02 437.025 USB, Beacon 2401.1428
Sapphire 26 Oct 03:12:26 03:16:53 27° 108° (ESE) 03:21:22 437.095 MHz 1200 baud AX-25 AFSK
Uribyol 2 26 Oct 03:31:39 03:36:54 89° 104° (ESE) 03:42:05 436.500 FM
PCSat 26 Oct 03:33:59 03:39:07 46° 112° (ESE) 03:44:17 145.825 MHz
ITAMSAT 1 26 Oct 03:38:00 03:43:16 85° 284° (WNW) 03:48:28 435.822 SSB
RS-15 26 Oct 03:49:56 03:56:33 17° 8° (N) 04:03:15 29.354 - 29.394 USB, Beacon 29.352 USB
OPAL 26 Oct 03:57:07 03:58:33 11° 58° (ENE) 03:59:58 ?
Oscar 19 26 Oct 04:04:16 04:07:56 20° 295° (WNW) 04:11:34 437.125 CW, 437.150 USB
